Location: Clanezzo
(45.7500°N, 9.6000°E)
Time: 12:05:39
(UTC+00:00)

Cosmos 1500 - Pass Details

Date: 12 May 2021
Orbit: 497 x 518 km, 82.5° (Epoch: 19 June)

Event Time Altitude Azimuth Distance (km) Brightness Sun altitude
Rises 19:30:41 0° 1° (N) 2,611 7.3 -7.9°
Reaches altitude 10° 19:33:03 10° 13° (NNE) 1,718 6.2 -8.2°
Maximum altitude 19:36:19 28° 74° (ENE) 975 4.3 -8.7°
Enters shadow 19:39:07 12° 130° (SE) 1,553 4.9 -9.0°
